Location: Newark
(42.8481°N, 0.4872°E)
Time: 08:40:46
(UTC+00:00)

Vanguard 3 - Pass Details

Date: 04 November 2020
Orbit: 508 x 3262 km, 33.3° (Epoch: 27 November)

Event Time Altitude Azimuth Distance (km) Brightness Sun altitude
Rises 02:38:04 0° 219° (SW) 4,952 - -43.5°
Reaches altitude 10° 02:41:08 10° 211° (SSW) 4,299 - -43.0°
Exits shadow 02:48:55 36° 174° (S) 3,390 10.0 -41.7°
Maximum altitude 02:52:36 40° 147° (SSE) 3,464 10.2 -41.0°
Drops below altitude 10° 03:09:08 10° 87° (E) 6,144 12.3 -38.2°
Sets 03:14:34 0° 82° (E) 7,233 12.9 -37.2°
